Miscellaneous Local Product
Issued by NWS North Platte, NE

Home | Current Version | Previous Version | Graphics & Text | Print | Product List | Glossary On
Versions: 1 2 3 4 5 6 7 8 9 10 11 12 13 14 15 16 17 18 19 20 21 22 23 24 25 26 27 28 29 30 31 32 33 34 35 36 37 38 39 40 41 42 43 44 45 46 47 48 49 50
000
AXUS43 KLBF 282210
MISLBF


WESTERN AND NORTH CENTRAL NEBRASKA HOURLY WEATHER ROUNDUP
NATIONAL WEATHER SERVICE NORTH PLATTE NE
500 PM CDT THU MAY 28 2015

***STATIONS NOT REPORTING VARIABLES SUCH AS SKY/WEATHER OR
PRESSURE ARE PROVIDED BY THE NEBRASKA DEPARTMENT OF
ROADS...RAWS...AND APRS NETWORKS...AND ARE NOT UNDER
NATIONAL WEATHER SERVICE QUALITY CONTROL***

...OBSERVATIONS IN AND NEAR THE EASTERN PANHANDLE OF NEBRASKA...

CITY           SKY/WX    TMP DP  RH WIND       PRES   REMARKS
PINE RIDGE     CLOUDY    71  53  52 N6        29.90R
CHADRON        PTSUNNY   71  54  54 MISG      29.91F
ALLIANCE       CLOUDY    66  52  60 SW9       29.92S
SIDNEY         LGT RAIN  57  51  80 NW8       29.99F
WHITECLAY        N/A     71  53  51 NW10        N/A
BIG SPRINGS      N/A     73  58  59 SE6         N/A
$$

...OBSERVATIONS IN NORTH CENTRAL NEBRASKA...

CITY           SKY/WX    TMP DP  RH WIND       PRES   REMARKS
VALENTINE      LGT RAIN  71  48  43 SE8G23    29.83F
THEDFORD       PTSUNNY   77  61  58 SE8       29.89F
AINSWORTH      PTSUNNY   78  60  53 S15       29.88F
O`NEILL        CLOUDY    79  59  50 S16       29.89F
ORD            PTSUNNY   76  59  55 S14       29.89F
BROKEN BOW     CLOUDY    74  60  61 S12G21    29.90F
BROWNLEE         N/A     61  54  79 NE10        N/A
VALENTINE NWR    N/A     73  57  57 SW6G16      N/A
SPRINGVIEW       N/A     76  60  57 S7          N/A
HALSEY           N/A     73  58  59 S8G17       N/A
BREWSTER         N/A     76  63  64 S12         N/A
ROSE             N/A     78  64  62 SE16        N/A
NEWPORT          N/A     78  60  53 S13         N/A
SARGENT          N/A     73  61  65 S3          N/A
COMSTOCK         N/A     80  65  61 S12         N/A
EWING            N/A     78  60  54 S9          N/A
$$

...OBSERVATIONS IN SOUTHWEST NEBRASKA AND FAR NORTHEAST COLORADO...

CITY           SKY/WX    TMP DP  RH WIND       PRES   REMARKS
WRAY           FAIR      74  58  56 SE14      29.88F
HOLYOKE        FAIR      73  55  53 E5        29.92F
IMPERIAL       MOSUNNY   73  60  63 SE15      29.89F
OGALLALA       PTSUNNY   74  57  54 S8        29.91S
NORTH PLATTE   PTSUNNY   76  61  59 S9        29.88F
MCCOOK         PTSUNNY   75  59  57 S21G26    29.89F
LEXINGTON      MOSUNNY   76  62  62 S14       29.90F
PAXTON           N/A     74  61  63 S7          N/A
GOTHENBURG       N/A     75  57  53 S12         N/A
CALLAWAY         N/A     76  65  67 S15         N/A
$$

...NORTH PLATTE AREA...

CITY           SKY/WX    TMP DP  RH WIND       PRES   REMARKS
AIRPORT        PTSUNNY   76  61  59 S9        29.88F
DOWNTOWN         N/A     76  60  57 S3G12       N/A
$$

...SOME WEATHER OBSERVATIONS FROM AROUND THE REGION...

CITY           SKY/WX    TMP DP  RH WIND       PRES   REMARKS
DENVER         CLOUDY    68  47  46 E6        29.98F
LARAMIE        PTSUNNY   63  34  33 W17G26    30.09F
CHEYENNE       PTSUNNY   67  36  31 NW14G24   30.02F
SCOTTSBLUFF    CLOUDY    73  48  41 W6        29.92F
RAPID CITY     PTSUNNY   68  54  60 N13       29.91S
PIERRE         TSTM      72  56  57 S15G29    29.82R
WINNER         TSTM      76  58  53 SW15      29.84F
SIOUX FALLS    PTSUNNY   79  58  48 S25G33    29.89F
OMAHA          CLOUDY    71  65  81 S13       29.96F
GRAND ISLAND   CLOUDY    77  59  53 S13       29.90F
KANSAS CITY    CLOUDY    71  66  84 S9        30.02F
WICHITA        MOSUNNY   80  63  55 SW10      29.94F
HAYS           PTSUNNY   79  63  57 SE18      29.92F
LIBERAL        CLOUDY    79  63  57 S25G33    29.89F
GOODLAND       CLOUDY    66  59  78 S9        29.92S
$$



USA.gov is the U.S. government's official web portal to all federal, state and local government web resources and services.